Regional Weather Roundup
Issued by NWS Upton, NY

Current Version | Previous Version | Text Only | Print | Product List | Glossary On
Versions: 1 2 3 4 5 6 7 8 9 10 11 12 13 14 15 16 17 18 19 20 21 22 23 24 25 26 27 28 29 30 31 32 33 34 35 36 37 38 39 40 41 42 43 44 45 46 47 48 49 50
000
ASUS41 KOKX 262107
RWROKX

REGIONAL WEATHER ROUNDUP
NATIONAL WEATHER SERVICE NEW YORK NY
500 PM EDT SUN APR 26 2015

NOTE: "FAIR" INDICATES FEW OR NO CLOUDS BELOW 12,000 FEET WITH NO
SIGNIFICANT WEATHER AND/OR OBSTRUCTIONS TO VISIBILITY.

NYZ071-072-176-178-NJZ106-104-262200-
NEW YORK CITY METRO AREA


CITY           SKY/WX    TMP DP  RH WIND       PRES   REMARKS
CENTRAL PARK   CLOUDY    60  27  28 VRB6      29.67F
LAGUARDIA APRT PTSUNNY   59  29  31 N5        29.65S
KENNEDY INTL   PTSUNNY   53  36  52 S10       29.67S
NEWARK/LIBERTY PTSUNNY   61  26  26 NW10G21   29.65S
BRNX BOT. GARD   N/A     59  28  31 N3        29.66S
TETERBORO      CLOUDY    60  27  28 N6        29.64S
$$

NYZ177-179-078>081-262200-
LONG ISLAND NEW YORK

CITY           SKY/WX    TMP DP  RH WIND       PRES   REMARKS
FARMINGDALE    CLOUDY    57  33  40 SW9       29.65F
ISLIP          PTSUNNY   57  33  40 SW7       29.63F
SHIRLEY        CLOUDY    54  35  48 SW10      29.66S
WESTHAMPTON    CLOUDY    53  33  46 SW12      29.66F
MONTAUK POINT    N/A     51  37  58 SW12      29.66S
$$

NYZ052-065-067-262200-
HUDSON VALLEY

CITY           SKY/WX    TMP DP  RH WIND       PRES   REMARKS
WHITE PLAINS   PTSUNNY   57  27  31 W10       29.64S
NEWBURGH       PTSUNNY   55  32  41 CALM      29.66
MONTGOMERY     CLOUDY    58  28  32 NW10      29.64S
POUGHKEEPSIE   CLOUDY    58  30  34 N9        29.64S
ALBANY         CLOUDY    56  30  37 NW12      29.66S
$$

NJZ001-105-106-008-010-013-015-019>022-104-262200-
NEW JERSEY

CITY           SKY/WX    TMP DP  RH WIND       PRES   REMARKS
NEWARK/LIBERTY PTSUNNY   61  26  26 NW10G21   29.65S
TETERBORO      CLOUDY    60  27  28 N6        29.64S
CALDWELL       CLOUDY    59  26  28 NW12      29.66S
MORRISTOWN     CLOUDY    59  27  29 N9        29.66S
SOMERVILLE     CLOUDY    62  26  25 NW9       29.64S
SUSSEX         PTSUNNY   56  27  32 NW10G17   29.68S
ANDOVER          N/A     57  27  31 N8        29.67R
TRENTON        CLOUDY    60  28  29 N5        29.66S
MILLVILLE      CLOUDY    57  32  38 VRB5      29.68S
ATLANTIC CITY  MOSUNNY   56  31  38 SE10      29.69R
WRIGHTSTOWN    CLOUDY    59  28  31 N5        29.65S
TOMS RIVER     SUNNY     57  28  33 SE6G16    29.68S
BELMAR         MOSUNNY   57  28  33 CALM      29.67S
$$

PAZ047>061-062-071-262200-
EASTERN PENNSYLVANIA

CITY           SKY/WX    TMP DP  RH WIND       PRES   REMARKS
PHILADELPHIA   PTSUNNY   61  29  29 CALM      29.67S
ALLENTOWN      CLOUDY    59  31  34 NW8       29.67S
SCRANTON       CLOUDY    53  26  35 NW15      29.71R
$$

CTZ002-004>006-009-010-012-RIZ004-006-007-MAZ004-011-015-262200-
SOUTHERN NEW ENGLAND
 IN CT

CITY           SKY/WX    TMP DP  RH WIND       PRES   REMARKS
BRADLEY INTL   PTSUNNY   59  29  31 NW8       29.63F
HARTFORD       CLOUDY    57  28  33 NW7       29.64F
DANBURY        CLOUDY    57  27  31 NW9       29.65S
WTRBRY/OXFORD  CLOUDY    55  30  38 N9        29.65F
BRIDGEPORT     CLOUDY    55  36  48 SW8       29.64S
MERIDEN        CLOUDY    58  27  30 N10       29.64S
NEW HAVEN      CLOUDY    53  34  48 SW7       29.64F
CHESTER        CLOUDY    55  30  38 N6        29.64S
GROTON         CLOUDY    54  32  43 SW13      29.63S
WILLIMANTIC    CLOUDY    56  29  35 N12       29.64S

 IN RI

CITY           SKY/WX    TMP DP  RH WIND       PRES   REMARKS
PROVIDENCE     PTSUNNY   56  30  37 N5        29.63S
BLOCK ISLAND   CLOUDY    50  34  53 SW13      29.65S
WESTERLY       CLOUDY    51  35  54 S10       29.65S

 IN MA

CITY           SKY/WX    TMP DP  RH WIND       PRES   REMARKS
BOSTON         CLOUDY    55  34  45 SW3       29.62F
WORCESTER      CLOUDY    52  26  36 NW8       29.62S
WESTFIELD      CLOUDY    56  28  34 NW8       29.63F
PROVINCETOWN   CLOUDY   N/A N/A N/A CALM      29.63S
NANTUCKET      PTSUNNY   47  36  65 SW8       29.64S
$$

ANZ330-335-338-340-345-350-353-355-262200-
COASTAL MARINE OBSERVATIONS


STATION/POSITION TIME  SKY/WX   TEMP    WIND        PRES    VSBY  WAVE
                                AIR SEA DIR/SP/G                  HT/PER
                 (UTC)          (F)     (DEG/KT/KT) (MB)    (MI)  (FT/S)
NY HARB ENTRANCE 2050            48 47  200/ 10/ 10 1004.2          1/11
4S FIRE IS       2003               45                N/A           1/12
20S FIRE ISLAND  2050            47 46  220/  8/  8 1004.6          1/11
23SW MTP         NOT AVBL
HUDSON CANYON    NOT AVBL
EXECUTION ROCKS  NOT AVBL
WESTERN LI SOUND NOT AVBL
CENTRAL LI SOUND NOT AVBL
EASTERN LI SOUND 2000            47     260/  8/ 10   N/A
ROBBINS REEF     2000            55     170/ 10/ 11 1002.9
$$


>>>>>>>>>>>>>>>>>>>>>>>>>>>> KEY <<<<<<<<<<<<<<<<<<<<<<<<<<<
>                                                          <
>     SKY/WX - SKY CONDITION/PRESENT WEATHER               <
>     TMP    - TEMPERATURE IN FAHRENHEIT                   <
>     DP     - DEWPOINT IN FAHRENHEIT                      <
>     RH     - RELATIVE HUMIDITY IN PERCENT                <
>     WIND   - DIRECTION AND SPEED IN MPH                  <
>     PRES   - MEAN SEA LEVEL PRESSURE IN INCHES OF HG     <
>     WCI    - WIND CHILL INDEX                            <
>     VSB    - VISIBILITY IN MILES                         <
>     HX     - HEAT INDEX                                  <
>     TC     - TEMPERATURE IN CELSIUS                      <
>     VRB    - VARIABLE WIND DIRECTION                     <
>                                                          <
>>>>>>>>>>>>>>>>>>>>>>>>>>>> KEY <<<<<<<<<<<<<<<<<<<<<<<<<<<





USA.gov is the U.S. government's official web portal to all federal, state and local government web resources and services.